Hourly Weather Roundup
Issued by NWS Central Illinois

Home | Current Version | Previous Version | Text Only | Print | Product List | Glossary On
Versions: 1 2 3 4 5 6 7 8 9 10 11 12 13 14 15 16 17 18 19 20 21 22 23 24 25 26 27 28 29 30 31 32 33 34 35 36 37 38 39 40 41 42 43 44 45 46 47 48 49 50
000
NZUS43 KILX 241910
HWRILX

AREA WEATHER ROUNDUP
NATIONAL WEATHER SERVICE, LINCOLN IL
200 PM CDT FRI MAR 24 2017


CITY           SKY/WX    TMP DP  RH WIND       PRES   REMARKS
BLOOMINGTON    MOSUNNY   77  54  44 SW29G35   29.95F
CHAMPAIGN      SUNNY     76  55  48 S33G40    29.99F
DECATUR        MOSUNNY   75  55  49 S26G36    29.99F
EFFINGHAM      PTSUNNY   73  58  59 S20G29    30.05F
FLORA          PTSUNNY   74  59  59 S29G36    30.07F
GALESBURG      CLOUDY    77  45  31 SW20G28   29.89F
JACKSONVILLE   MOSUNNY   78  50  38 S24       29.92F
LACON          CLOUDY    77  48  35 SW17G28   29.91S
LAWRENCEVILLE  CLOUDY    73  57  57 S28G38    30.09F
LITCHFIELD     SUNNY     74  58  58 S23G35    29.98F
$$


CITY           SKY/WX    TMP DP  RH WIND       PRES   REMARKS
LINCOLN        MOSUNNY   77  59  52 S16G24    29.95F
MACOMB         CLOUDY    77  41  27 SW26G35   29.93F
MATTOON        MOSUNNY   72  57  59 S22G31    30.03F
MT CARMEL AP   PTSUNNY   73  55  53 S23G31    30.08F
OLNEY-NOBLE AP CLOUDY    72  59  64 S14G24    30.08F
PARIS          PTSUNNY   73  58  58 S29G37    30.05F
PEORIA         MOSUNNY   77  48  35 SW24G32   29.92F
PONTIAC        SUNNY     80  53  39 SW22G35   29.95S HX  80
RANTOUL        MOSUNNY   78  58  49 S24G35    29.98F
SPRINGFIELD    MOSUNNY   77  55  46 S21       29.95F
TAYLORVILLE    MOSUNNY   73  57  56 S26G35    29.98F
$$

...REGIONAL REPORTS...


CITY           SKY/WX    TMP DP  RH WIND       PRES   REMARKS
CHICAGO O`HARE MOSUNNY   81  42  25 W23G32    29.88F
KANKAKEE       SUNNY     80  51  36 SW28G38   29.94F HX  80
MOLINE         CLOUDY    76  40  27 W24G30    29.88R
MOUNT STERLING CLOUDY    75  45  34 SW10      29.91F
MOUNT VERNON   CLOUDY    73  58  59 S29G35    30.06F
PITTSFIELD     CLOUDY    77  49  37 S20G26    29.93S
QUINCY         CLOUDY    75  47  36 SW15G24   29.91F
ROCKFORD       CLOUDY    79  45  29 W21       29.89R
$$


CITY           SKY/WX    TMP DP  RH WIND       PRES   REMARKS
BURLINGTON     CLOUDY    76  46  34 SW21G26   29.88F
CEDAR RAPIDS   CLOUDY    63  49  60 NW21G26   29.89R
DES MOINES     LGT RAIN  49  46  90 CALM      29.93F FOG
KIRKSVILLE     LGT RAIN  59  32  36 SW8       29.96R
OTTUMWA        CLOUDY    69  45  41 W12       29.89S
ST LOUIS       PTSUNNY   79  52  38 SW21G28   29.97F
$$


CITY           SKY/WX    TMP DP  RH WIND       PRES   REMARKS
TERRE HAUTE    CLOUDY    70  55  59 S24G31    30.07F
EVANSVILLE     CLOUDY    74  55  51 SW28G37   30.13F
INDIANAPOLIS   PTSUNNY   72  54  53 SW28G37   30.08F
LAFAYETTE      MOSUNNY   74  57  55 SW22G37   30.01F
MADISON        CLOUDY    60  49  66 N6        29.89S
MILWAUKEE      PTSUNNY   54  42  64 NE10      29.92R
$$





USA.gov is the U.S. government's official web portal to all federal, state and local government web resources and services.